YAOGAN-30 G

导读

YAOGAN-30 G(遥感三十号G卫星)是中国于2017年12月25日发射的遥感卫星,隶属于遥感三十号卫星系列,该卫星采用多星组网模式运行,主要任务是开展电磁环境探测及相关技术试验。作为中国遥感卫星体系的组成部分,它将为空间环境探测、科学试验提供数据支撑,助力相关航天技术验证与应用研究,发射任务的成功进一步完善了我国遥感卫星组网布局。

Basic Information
目录编号:
43081
目录名称:
YAOGAN-30 G
国际标识:
2017-085A
轨道中心:
EARTH
卫星名称:
YAOGAN-30 G
卫星全名:
--
卫星状态:
在轨 (已飞行3186 天)
发射日期:
2017-12-25 UTC
国别 :
中国 (CN)
星等 :
--
This satellite is enrolled in the Space Conjunction Data Service (SCDS) and the current flight risk assessment level is: No High Risk
Orbit Information
数据来源 国际轨道数据 AOE轨道数据
星历时间 2026-09-15T23:13:39+0800
7小时前
查看轨道信息
2026-09-13T13:00:00+0800
2天前
查看轨道信息
半长轴 6935.753km 6935.778km
偏心率 0.0004961 0.0004953
轨道倾角 34.997° 34.998°
近地点辐角 226.579° 208.760°
升交点赤经 318.655° 333.448°
平近点角 133.451° 322.550°
近地点 554.175km 554.205km
远地点 561.057km 561.077km
周期 95.808分钟 95.808分钟
每日圈数 15.030118 15.030038
Detailed Information
使用方式:
暂无
2D Orbit Map
3D Orbit Map
Orbit Altitude Analysis Chart
Orbit Inclination Analysis Chart
Orbit Comprehensive Analysis Chart
View Comprehensive Chart
Miss Distance Evolution Trend with All Objects Subscribe to Flight Safety Assessment
Collision Probability Evolution Trend with All Objects Subscribe to Flight Safety Assessment